Tracking 19817 objects as of 17-Aug-2019
HD Live streaming from Space Station
objects crossing your sky now

COSMOS 2251 DEB

Track COSMOS 2251 DEB now!
10-day predictions


NORAD ID: 34271
Int'l Code: 1993-036LR
Perigee: 742.2 km
Apogee: 793.2 km
Inclination: 74.0 °
Period: 100.0 minutes
Semi major axis: 7138 km
RCS: 0.0086 m2 (small)
Launch date: June 16, 1993
Source: Commonwealth of Independent States (former USSR) (CIS)
Launch site: PLESETSK MISSILE AND SPACE COMPLEX (PKMTR)

Note: This is SATELLITE DEBRIS
aabbcc
Your satellite tracking list
Your tracking list is empty




NASA's NSSDC Master Catalog

Two Line Element Set (TLE):
1 34271U 93036LR  19228.98646122  .00000447  00000-0  15098-3 0  9999
2 34271  74.0339 197.6276 0035754 102.3002 314.0464 14.39369417548326
Source of the keplerian elements: AFSPC